Regional Weather Roundup
Issued by NWS Kansas City/Pleasant Hill, MO

Home | Current Version | Previous Version | Text Only | Print | Product List | Glossary On
Versions: 1 2 3 4 5 6 7 8 9 10 11 12 13 14 15 16 17 18 19 20 21 22 23 24 25 26 27 28 29 30 31 32 33 34 35 36 37 38 39 40 41 42 43 44 45 46 47 48 49 50
000
ASUS43 KEAX 070510
RWREAX

WEATHER ROUNDUP FOR EASTERN KANSAS AND NORTHWEST MISSOURI
NATIONAL WEATHER SERVICE KANSAS CITY/PLEASANT HILL MO
1200 AM CDT THU MAY 07 2015

KSZ040-057-103>105-MOZ028-029-037-043-070600-
...KANSAS CITY METROPOLITAN AREA...

CITY           SKY/WX    TMP DP  RH WIND       PRES   REMARKS
K.C. INTL      PTCLDY    70  56  61 S22G30    29.84F
K.C. DOWNTOWN  MOCLDY    72  55  55 S17G25    29.85F
LEES SUMMIT    CLOUDY    70  55  59 S13G23    29.88F
OLATHE - IXD   MOCLDY    68  57  68 SE15      29.87S
OLATHE - OJC   MOCLDY    68  57  68 SE16      29.86F
LAWRENCE       MOCLDY    70  56  61 SE20G29   29.83F

$$

MOZ001>008-011>017-020>025-030>033-038>040-044>046-053-054-070600-
...NORTHERN AND CENTRAL MISSOURI...

CITY           SKY/WX    TMP DP  RH WIND       PRES   REMARKS
ST. JOSEPH     MOCLDY    71  56  58 S18G25    29.83S
MOSBY          PTCLDY    72  54  53 SE9G16    29.88S
HARRISONVILLE  CLOUDY    70  57  64 SE12G17   29.91F
WARRENSBURG    MOCLDY    70  54  56 SE15      29.90F
WHITEMAN AFB   PTCLDY    69  56  64 S13       29.91F
CLINTON        MOCLDY    72  57  60 SE13G18   29.92F
SEDALIA        MOCLDY    70  55  59 S16       29.94F
WARSAW         NOT AVBL
MARSHALL       PTCLDY    72  59  64 SE14      29.94S
CHILLICOTHE      N/A     71  56  58 SE12G20   29.91S
MOBERLY        CLEAR     70  54  56 SE10      29.97S
KIRKSVILLE     CLEAR     65  58  78 S12       29.95S

$$

MOZ041-047>049-056>058-063>065-088>090-097-070600-
...EASTERN AND SOUTHERN MISSOURI...

CITY           SKY/WX    TMP DP  RH WIND       PRES   REMARKS
ST. LOUIS INTL PTCLDY    75  53  46 SE7       30.04R
SPIRIT OF STL  CLEAR     65  54  67 CALM      30.02R
COLUMBIA       PTCLDY    69  55  60 SE10      29.98S
JEFFERSON CITY PTCLDY    70  54  56 E9        29.98R
MEXICO         CLEAR     68  59  73 S7        30.00R
HANNIBAL       CLEAR     72  46  40 SE7       30.00S
ROLLA          MOCLDY    67  52  58 SE10      30.00S
LEBANON        CLEAR     68  54  60 SE8       29.98F
OSAGE BEACH    PTCLDY    70  54  56 SE3       29.98S
SPRINGFIELD    MOCLDY    69  55  60 SE15G24   29.95F
BRANSON        CLOUDY    66  55  68 SE10      30.00S
NEVADA         MOCLDY    68  57  68 SE15G23   29.92R
JOPLIN         LGT RAIN  71  58  63 SE16G25   29.91R
WEST PLAINS    CLOUDY    65  54  67 SE6       30.04S

$$

IAZ060-094-KSZ022-034>040-054-083-096-NEZ052-066-093-070600-
...KANSAS...SOUTHEAST NEBRASKA AND IOWA...

CITY           SKY/WX    TMP DP  RH WIND       PRES   REMARKS
TOPEKA         PTCLDY    71  57  61 SE18G26   29.81S
MANHATTAN      MOCLDY    70  61  73 S17G32    29.73S
EMPORIA        LGT RAIN  67  61  81 S30G44    29.79F
CHANUTE        CLOUDY    70  57  63 S14G24    29.86R
WICHITA        TSTM      68  65  90 SE13      29.82S
OMAHA          TSTM      65  62  90 S6        29.76R
LINCOLN        RAIN      60  59  96 SE15      29.75R FOG
FALLS CITY     CLOUDY    69  56  62 SE23G32   29.76S
LAMONI         CLOUDY    68  58  70 SE10      29.87F
DES MOINES     CLOUDY    69  58  67 SE17      29.86F

$$




USA.gov is the U.S. government's official web portal to all federal, state and local government web resources and services.